Location: Dugenta
(41.1333°N, 14.4500°E)
Time: 14:45:33
(UTC+00:00)

Cosmos 1844 Rocket - Pass Details

Date: 03 March 2021
Orbit: 826 x 843 km, 71.0° (Epoch: 20 April)

Event Time Altitude Azimuth Distance (km) Brightness Sun altitude
Rises 18:24:21 0° 337° (NNW) 3,372 6.2 -17.5°
Reaches altitude 10° 18:26:47 10° 339° (NNW) 2,434 5.5 -18.0°
Maximum altitude 18:32:22 79° 65° (ENE) 846 2.5 -19.0°
Enters shadow 18:36:19 20° 151° (SSE) 1,823 4.1 -19.7°
